Retour au catalogue

STARLINK-34919

ActifCommunicationsSSO
NORAD 65802·PAYLOAD·🇺🇸 United States

Lancé Sep 26, 2025 depuis Vandenberg Space Force Base

Loading…

Prochains Passages (prochaines 24 heures)

TLE

FraisSource: CelesTrak SupGP

Époque: Sep 15, 2026, 03:40 UTC

1 65802C 25218M   26258.15326389 -.00022604  00000+0 -70155-3 0  2583
2 65802  97.2848 115.6279 0001943  95.4885 347.1076 15.33455028    13

Suivez STARLINK-34919 en temps réel avec AllMySat

Download on the App Store